Location: Nakusp
(50.2330°N, 117.8000°W)
Time: 03:38:05
(UTC-07:00)

Cosmos 1939 Rocket - Visible Passes

Search period start: 26 May 2016 00:00
Search period end: 05 June 2016 00:00
Orbit: 535 x 587 km, 97.6° (Epoch: 26 May)

Date Brightness Start Highest point End Pass type
(mag) Time Alt. Az. Time Alt. Az. Time Alt. Az.
26 May 5.6 22:33:55 10° WSW 22:35:58 13° W 22:38:02 10° WNW visible
27 May 5.6 22:32:56 10° WSW 22:35:03 14° W 22:37:10 10° WNW visible
28 May 5.6 22:31:57 10° WSW 22:34:08 14° W 22:36:18 10° WNW visible
29 May 5.6 22:30:58 10° WSW 22:33:12 14° W 22:35:26 10° NW visible
30 May 5.6 22:29:59 10° WSW 22:32:17 14° W 22:34:33 10° NW visible
31 May 5.6 22:29:01 10° WSW 22:31:21 15° W 22:33:41 10° NW visible
01 Jun 5.6 22:28:02 10° SW 22:30:24 15° W 22:32:47 10° NW visible
02 Jun 5.6 22:27:03 10° SW 22:29:28 15° W 22:31:54 10° NW visible
03 Jun 5.5 22:26:03 10° SW 22:28:32 15° W 22:31:00 10° NW visible
04 Jun 5.5 22:25:04 10° SW 22:27:36 16° W 22:30:06 10° NW visible
